Wind_Speed
18 17 14 12 10 7 5 4 5 4 5 6 6 6 5 6 7 5 7 10 14 12 9 10 13 13 14 12 13 11 17 17 17 16 16 14 11 10 9 9 9 8 9 9 9
19 20 20 20 17 14 12 9 9 9 6 4 5 5 5 5 5 5 5 9 12 12 10 10 14 16 15 14 12 8 11 14 17 15 14 16 14 13 9 8 6 7 8 8 7
21 21 20 19 21 21 18 16 15 14 12 9 6 5 4 4 4 5 5 6 11 10 10 10 14 16 15 11 13 7 7 11 18 18 15 15 16 14 10 9 7 6 7 6 6
21 21 21 21 21 21 23 22 19 17 15 13 10 8 5 2 1 2 4 6 8 9 9 9 12 13 11 9 5 4 4 10 15 17 18 17 16 15 14 9 7 8 6 5 6
23 23 23 23 22 23 23 22 21 20 18 16 14 12 10 6 3 2 2 4 6 8 8 7 10 8 8 10 8 6 6 8 12 14 16 16 18 16 14 11 8 7 8 6 4
22 23 24 25 24 24 25 24 24 23 22 20 18 16 14 11 10 6 5 4 5 7 9 8 9 6 8 11 9 8 8 7 8 10 12 14 17 17 15 12 11 9 6 8 7
20 22 23 24 24 25 26 27 26 26 25 24 23 21 19 14 12 13 8 6 6 7 9 10 8 6 5 9 8 6 2 5 5 7 9 11 13 15 16 13 11 11 10 7 6
17 19 20 21 21 23 25 25 27 27 27 27 26 26 23 19 17 16 14 11 7 7 7 12 11 8 5 7 5 3 2 2 3 3 5 6 11 13 16 16 11 11 10 8 6
16 16 18 19 18 19 21 23 25 26 26 28 29 29 27 24 22 18 17 15 11 8 8 8 13 10 7 7 7 4 2 4 1 2 3 5 8 10 12 15 13 10 9 8 6
19 17 15 16 17 18 19 20 21 22 25 26 27 29 30 26 25 24 21 18 15 13 10 9 11 11 10 8 5 5 3 8 4 2 3 3 7 8 9 9 11 11 10 9 8
25 21 18 17 17 17 19 19 19 20 22 24 26 27 30 28 28 27 26 24 21 17 14 12 11 12 14 11 12 11 5 6 6 5 7 4 3 7 7 7 9 11 10 8 7
24 25 23 21 19 19 18 19 20 21 22 22 24 27 29 30 29 30 29 27 25 22 19 15 13 17 17 14 12 12 11 7 6 10 6 1 2 3 4 6 8 10 12 10 7
19 22 25 26 24 21 20 20 19 19 20 20 23 26 26 28 31 32 30 28 27 27 21 19 19 20 18 16 13 11 12 12 11 5 11 8 3 0 5 5 3 6 9 10 10
15 17 18 20 23 23 21 20 20 19 18 20 19 23 24 28 31 32 34 31 30 28 27 27 25 21 19 17 16 14 17 14 11 10 6 7 4 4 5 6 12 9 7 8 9
13 15 15 14 17 20 21 19 19 18 17 18 19 19 21 26 28 32 33 34 32 31 29 27 24 22 19 15 18 15 17 16 14 13 11 11 6 15 12 11 10 12 6 7 7
13 15 13 13 14 16 18 18 18 17 18 17 16 16 18 20 25 29 32 34 34 32 31 34 27 24 20 23 21 21 17 17 15 15 12 13 11 9 10 13 12 9 7 11 7
15 16 14 13 14 14 15 18 17 18 16 16 14 13 14 15 19 27 30 32 32 31 31 31 28 26 24 22 21 18 18 17 17 15 9 18 14 12 16 14 15 13 4 4 1
16 17 17 14 14 15 14 16 18 18 16 14 13 12 11 11 15 22 28 30 33 31 32 32 29 26 23 22 20 19 20 17 16 13 12 18 14 10 18 15 17 17 9 6 4
18 17 18 17 16 15 15 16 19 18 15 14 14 12 9 9 12 17 23 29 29 29 30 30 29 27 25 25 24 24 25 18 19 19 15 12 14 14 20 17 17 15 13 8 4
20 18 18 19 18 17 16 17 18 18 16 14 15 13 11 8 8 12 18 24 27 28 28 30 31 28 29 27 27 26 23 23 21 17 17 14 16 12 17 13 15 13 14 8 4
21 20 20 20 19 19 18 19 18 19 18 16 16 15 14 10 9 11 16 19 23 25 29 28 29 29 30 28 27 26 26 23 17 18 16 15 15 13 19 15 16 14 13 8 6
23 21 21 21 21 21 21 20 18 20 20 17 17 15 14 9 10 14 16 18 20 22 23 23 25 25 27 29 29 26 23 19 20 16 17 19 17 17 23 18 14 13 13 11 12
23 21 21 19 22 23 24 23 22 21 22 19 18 15 12 10 10 14 17 17 18 20 23 26 26 21 22 26 27 27 27 21 19 16 18 16 9 15 26 21 17 13 13 11 17
24 23 22 23 21 24 26 27 25 22 23 21 20 17 14 11 10 14 16 16 14 14 20 25 20 21 14 14 16 20 19 17 17 16 14 16 12 12 23 23 20 18 17 15 10
26 25 24 23 22 23 28 28 27 26 24 24 23 21 18 16 16 18 16 12 9 7 10 17 20 22 20 22 20 14 17 19 19 14 13 14 14 19 19 20 16 23 18 14 3
28 27 27 24 25 24 26 30 31 29 27 28 28 25 23 21 21 20 18 16 12 9 9 14 17 19 23 20 19 19 19 22 20 15 17 11 16 24 19 19 19 22 21 13 7
31 30 29 27 27 28 28 30 34 32 32 30 29 26 28 25 23 24 19 17 15 12 8 10 17 22 14 20 22 19 18 22 22 18 15 12 18 21 22 19 19 24 22 16 10
Wind_Direction
246 245 245 248 249 251 267 300 326 358 20 25 24 35 40 61 85 87 100 99 108 98 85 69 71 56 49 43 25 46 65 63 60 65 70 75 83 95 96 98 103 107 113 123 137
245 245 246 245 246 250 253 264 281 293 309 330 349 1 26 48 66 81 86 102 110 104 108 90 82 64 50 34 22 69 78 64 56 51 58 66 69 82 93 109 114 107 111 115 120
246 247 248 250 249 250 253 258 266 272 278 283 292 310 356 31 63 76 81 101 111 114 106 97 81 68 51 42 51 93 81 68 62 56 55 55 58 61 80 89 112 115 109 106 112
247 246 247 248 249 253 254 256 258 261 265 266 267 273 281 328 328 99 93 114 113 116 123 109 84 72 56 40 27 104 109 91 72 60 60 56 60 63 59 63 96 107 123 127 136
250 250 249 247 247 249 250 252 252 255 256 254 255 257 261 259 255 207 175 127 127 134 124 111 100 90 81 62 31 28 144 99 83 67 62 56 57 62 63 51 49 95 114 121 151
252 251 251 250 249 249 249 249 250 248 248 247 249 250 250 250 249 239 220 197 168 157 146 137 110 119 98 86 61 64 114 110 94 75 64 53 50 51 61 55 53 50 85 106 107
257 254 252 251 249 248 248 248 247 245 244 243 243 244 245 246 247 243 232 213 187 186 157 158 142 142 111 103 95 66 160 60 89 76 56 47 43 40 49 61 48 49 53 72 104
263 261 259 256 252 249 248 247 247 245 243 241 240 241 241 243 241 243 239 230 217 198 178 160 166 163 145 111 103 93 177 149 70 53 54 46 25 35 42 48 57 44 47 55 60
266 263 260 260 258 257 254 250 247 245 243 242 240 238 237 236 238 237 240 238 230 215 188 178 168 172 159 135 96 111 212 189 135 37 49 53 35 44 43 38 42 52 37 46 52
261 264 266 264 259 257 256 256 254 251 245 241 239 237 236 234 233 231 231 233 233 225 214 192 174 176 174 165 184 173 218 218 228 240 168 68 35 36 36 40 32 40 48 40 32
251 256 263 266 265 262 259 256 255 255 251 247 241 238 235 231 229 229 227 228 233 230 222 207 189 179 179 185 181 186 186 202 242 174 162 152 30 52 35 27 29 34 38 40 43
255 253 255 260 263 264 263 262 258 257 255 251 245 241 236 232 228 227 228 227 231 234 228 213 191 192 192 191 196 199 194 234 232 227 221 230 4 12 52 42 14 13 22 17 9
265 263 259 257 259 263 263 262 262 263 262 256 250 241 236 234 231 228 227 225 224 228 224 219 208 208 201 198 200 207 216 228 220 230 237 248 286 302 349 341 312 344 342 350 356
266 268 268 261 255 255 260 262 260 262 268 267 250 245 235 231 228 227 226 223 221 223 223 219 216 212 209 198 199 212 237 243 242 238 252 240 224 254 246 289 314 322 292 319 332
279 275 275 272 256 252 254 258 256 259 263 262 256 248 239 233 230 225 225 223 222 221 223 226 223 219 213 205 206 201 223 233 244 242 247 269 235 255 247 279 296 297 277 312 304
276 277 281 277 266 255 250 252 253 253 256 262 260 255 245 237 229 224 223 222 223 221 223 227 221 216 209 209 211 216 220 234 246 246 250 248 243 257 263 266 277 292 266 316 277
278 275 275 276 269 263 252 244 246 247 257 261 264 253 240 237 231 224 222 223 224 222 223 231 228 226 215 217 221 221 225 236 244 246 244 244 238 198 251 242 268 268 254 13 66
274 273 273 265 267 262 254 245 242 243 250 258 258 254 244 233 232 230 223 222 222 219 219 226 229 232 227 223 223 224 231 231 238 234 235 256 234 232 243 239 253 259 233 283 73
272 271 268 263 259 260 253 248 242 241 242 243 249 255 254 236 235 229 228 222 222 222 220 223 225 224 225 222 223 224 227 232 232 240 225 248 252 226 234 238 252 248 236 255 310
268 266 264 264 253 251 253 246 242 237 233 234 237 245 252 245 237 235 228 223 220 218 218 221 222 225 225 221 222 228 226 234 235 231 247 248 262 229 236 228 238 233 240 252 279
270 264 261 257 252 246 246 241 241 235 227 229 231 239 242 241 241 238 232 227 222 216 217 216 216 223 224 224 228 228 234 232 219 233 235 254 264 252 221 225 233 232 238 244 282
271 267 259 253 248 240 239 241 238 232 226 224 228 235 247 247 232 235 230 228 222 214 216 216 211 225 222 223 224 226 227 230 231 251 264 247 244 247 204 215 225 217 222 234 235
265 265 254 253 245 239 234 237 234 230 224 220 221 222 229 233 244 227 225 221 218 217 217 215 211 212 221 227 226 227 229 218 228 246 246 259 270 233 202 205 209 228 223 254 241
260 261 256 247 244 235 230 230 232 229 224 218 217 215 206 225 229 206 199 206 204 201 202 211 210 206 230 232 239 230 228 214 221 237 257 258 233 212 203 204 216 243 237 224 232
255 258 256 247 239 236 231 226 228 227 224 217 212 209 195 202 199 189 198 205 211 236 227 214 203 196 209 213 205 202 212 210 220 227 241 251 251 200 198 197 220 235 225 215 251
250 251 253 247 238 236 234 227 224 225 222 219 213 205 195 202 200 194 194 202 203 235 243 210 191 199 198 210 211 216 225 221 229 237 251 246 212 216 202 209 228 228 223 221 271
247 247 247 248 241 234 231 228 224 221 224 221 218 203 197 204 197 197 193 201 204 224 210 202 198 197 211 219 225 230 230 225 232 243 240 246 211 194 202 209 225 228 219 242 265
Height
5936 5937 5938 5939 5940 5941 5941 5940 5941 5941 5941 5942 5941 5942 5942 5942 5942 5942 5943 5944 5944 5943 5943 5943 5941 5940 5939 5938 5936 5935 5935 5932 5931 5929 5929 5927 5926 5926 5926 5925 5925 5926 5927 5927 5928
5933 5934 5935 5937 5938 5938 5940 5940 5940 5940 5941 5942 5942 5942 5943 5943 5943 5943 5944 5944 5945 5945 5946 5945 5943 5942 5941 5940 5939 5938 5937 5935 5933 5931 5930 5930 5929 5928 5929 5928 5928 5928 5928 5929 5929
5930 5931 5932 5933 5934 5936 5937 5938 5939 5939 5940 5941 5941 5942 5943 5944 5944 5944 5945 5945 5946 5946 5947 5946 5944 5943 5943 5943 5941 5940 5939 5937 5936 5934 5933 5932 5931 5930 5930 5930 5930 5930 5929 5930 5932
5925 5927 5928 5929 5931 5932 5933 5935 5936 5937 5938 5939 5940 5940 5942 5943 5945 5945 5945 5946 5947 5947 5948 5948 5946 5946 5946 5945 5944 5943 5941 5940 5938 5937 5935 5935 5934 5933 5932 5932 5931 5931 5931 5931 5932
5921 5922 5923 5925 5926 5928 5929 5930 5932 5934 5935 5936 5937 5939 5940 5942 5944 5944 5945 5946 5946 5947 5948 5948 5948 5948 5947 5946 5945 5944 5944 5943 5941 5940 5938 5938 5937 5936 5935 5935 5933 5933 5933 5932 5933
5916 5917 5918 5920 5922 5922 5924 5926 5927 5930 5931 5933 5934 5936 5937 5940 5941 5943 5944 5945 5946 5947 5948 5948 5949 5949 5948 5947 5947 5947 5946 5945 5944 5943 5942 5940 5939 5939 5938 5937 5936 5936 5935 5934 5935
5911 5912 5913 5915 5916 5917 5918 5920 5922 5924 5926 5928 5930 5932 5934 5938 5939 5940 5942 5944 5945 5946 5947 5948 5949 5950 5949 5948 5948 5949 5949 5948 5947 5945 5944 5942 5942 5940 5939 5938 5938 5938 5938 5937 5937
5907 5907 5908 5910 5911 5912 5913 5915 5916 5919 5921 5923 5926 5927 5930 5933 5935 5937 5940 5942 5944 5945 5947 5948 5949 5950 5950 5949 5949 5950 5951 5951 5949 5947 5946 5946 5944 5942 5940 5940 5940 5939 5939 5939 5939
5903 5903 5904 5905 5906 5907 5908 5909 5911 5913 5915 5917 5920 5922 5925 5929 5931 5934 5936 5939 5942 5944 5946 5947 5949 5950 5950 5950 5952 5951 5952 5952 5951 5949 5949 5949 5946 5944 5942 5941 5940 5940 5940 5940 5941
5898 5900 5900 5901 5902 5902 5903 5904 5906 5907 5909 5911 5914 5918 5920 5924 5926 5930 5933 5935 5938 5941 5944 5946 5948 5949 5950 5950 5957 5952 5953 5952 5952 5952 5951 5950 5948 5946 5945 5943 5942 5941 5941 5940 5940
5893 5895 5896 5897 5898 5898 5899 5901 5903 5903 5904 5906 5908 5910 5913 5917 5920 5924 5928 5931 5934 5937 5941 5943 5946 5946 5948 5950 5950 5951 5952 5952 5951 5951 5951 5951 5949 5949 5946 5944 5943 5942 5942 5941 5941
5888 5889 5891 5892 5893 5894 5895 5896 5897 5898 5898 5900 5902 5904 5907 5911 5915 5918 5922 5927 5930 5933 5936 5940 5943 5943 5945 5948 5949 5949 5951 5951 5951 5951 5952 5952 5951 5950 5949 5947 5945 5942 5942 5942 5942
5883 5883 5885 5887 5888 5890 5890 5891 5892 5892 5894 5895 5895 5898 5901 5905 5908 5912 5916 5920 5924 5927 5932 5935 5938 5939 5943 5945 5946 5948 5949 5949 5950 5951 5952 5953 5954 5951 5950 5948 5947 5945 5943 5942 5942
5879 5879 5879 5881 5884 5884 5885 5886 5887 5888 5889 5890 5891 5892 5895 5897 5901 5905 5909 5915 5918 5923 5925 5928 5931 5935 5939 5942 5944 5946 5946 5947 5947 5949 5953 5952 5958 5954 5951 5949 5946 5946 5945 5943 5942
5875 5875 5875 5876 5877 5879 5881 5881 5882 5884 5885 5885 5885 5887 5889 5892 5896 5899 5903 5907 5912 5916 5921 5925 5928 5931 5935 5939 5940 5941 5942 5944 5946 5948 5950 5951 5954 5953 5951 5950 5948 5946 5946 5945 5943
5872 5871 5872 5872 5873 5874 5875 5877 5879 5881 5880 5880 5881 5883 5885 5887 5889 5894 5897 5901 5906 5910 5914 5915 5922 5926 5931 5933 5935 5937 5940 5942 5944 5946 5950 5953 5952 5955 5952 5948 5947 5946 5945 5945 5944
5868 5867 5868 5868 5869 5870 5871 5873 5876 5876 5878 5878 5878 5879 5881 5883 5885 5888 5892 5896 5902 5907 5910 5913 5918 5921 5926 5929 5932 5936 5938 5941 5944 5946 5949 5946 5947 5953 5948 5947 5946 5944 5944 5944 5944
5863 5863 5863 5865 5865 5865 5867 5869 5870 5872 5873 5874 5875 5876 5878 5880 5882 5884 5887 5891 5895 5901 5905 5909 5913 5917 5922 5926 5930 5932 5936 5940 5942 5946 5948 5943 5944 5949 5945 5945 5944 5943 5943 5943 5943
5858 5858 5858 5860 5860 5861 5863 5864 5866 5868 5870 5872 5873 5874 5875 5877 5879 5880 5884 5887 5891 5896 5902 5905 5910 5912 5917 5920 5925 5928 5929 5936 5939 5939 5941 5944 5941 5942 5942 5943 5942 5941 5942 5941 5942
5852 5853 5853 5854 5855 5857 5858 5859 5861 5864 5866 5868 5870 5872 5874 5875 5876 5877 5879 5883 5887 5892 5895 5900 5904 5907 5910 5915 5919 5922 5926 5929 5931 5936 5937 5940 5937 5941 5940 5940 5940 5940 5940 5940 5940
5846 5847 5848 5848 5849 5852 5853 5854 5856 5859 5862 5865 5867 5869 5871 5873 5874 5875 5877 5880 5882 5887 5890 5895 5900 5903 5905 5910 5914 5918 5921 5925 5930 5932 5934 5936 5938 5937 5936 5937 5938 5938 5939 5939 5938
5839 5841 5841 5842 5845 5846 5847 5849 5852 5854 5858 5861 5863 5866 5868 5870 5871 5873 5875 5877 5879 5883 5887 5892 5896 5899 5904 5906 5908 5912 5916 5920 5923 5928 5927 5928 5931 5929 5931 5934 5936 5936 5937 5937 5938
5831 5833 5835 5836 5837 5839 5841 5843 5846 5849 5853 5857 5859 5863 5866 5867 5869 5871 5873 5875 5877 5880 5883 5885 5890 5896 5899 5902 5904 5906 5911 5916 5921 5925 5925 5925 5929 5925 5928 5930 5932 5933 5934 5934 5935
5824 5826 5827 5828 5831 5832 5834 5837 5840 5844 5848 5852 5856 5859 5863 5865 5867 5869 5871 5873 5875 5877 5879 5882 5888 5893 5901 5901 5904 5903 5907 5910 5916 5920 5921 5922 5922 5925 5926 5927 5929 5930 5930 5931 5932
5816 5818 5819 5821 5823 5825 5827 5831 5834 5838 5843 5847 5851 5855 5859 5863 5866 5867 5870 5873 5875 5876 5878 5880 5885 5889 5894 5895 5898 5903 5906 5907 5911 5915 5919 5921 5918 5921 5921 5924 5926 5926 5927 5928 5928
5807 5809 5811 5813 5815 5818 5820 5824 5827 5832 5837 5841 5845 5850 5855 5859 5862 5865 5868 5871 5873 5875 5876 5879 5884 5887 5890 5893 5896 5899 5902 5904 5907 5910 5912 5914 5915 5915 5919 5922 5923 5923 5923 5925 5926
5797 5799 5802 5805 5807 5810 5812 5816 5819 5825 5829 5835 5840 5846 5850 5854 5858 5862 5866 5869 5872 5874 5876 5879 5883 5886 5891 5893 5894 5898 5899 5901 5904 5906 5908 5910 5912 5914 5916 5918 5920 5920 5922 5923 5923